Torna al catalogo

STARLINK-1821

AttivoComunicazioniVLEO
NORAD 46718·PAYLOAD·🇺🇸 United States

Lanciato Oct 18, 2020 da Cape Canaveral Space Force Station

Loading…

Prossimi Passaggi (prossime 24 ore)

TLE

AggiornatoSource: CelesTrak SupGP

Epoca: Sep 14, 2026, 14:20 UTC

1 46718C 20073BA  26257.59770833  .00088449  00000+0  74007-3 0  2572
2 46718  53.0354  37.0569 0001199 258.7936 132.3951 15.69283936    15

Traccia STARLINK-1821 in tempo reale con AllMySat

Download on the App Store